PAL912 RPVM-RPLL

Flight info

Callsign PAL912
Flight time 1h 3m
Altitude 34000
Route PARAO4P PARAO DCT ROX DCT LAIYA LAIYA7R
Aircraft A359/H-SDE2E3GHIJ3J4J5LM1ORWXY/LB1D1

Departure

Time 2026-05-04 03:30
Airport Mactan Cebu International Airport (RPVM)

Arrival

Time 2026-05-04 04:33
Airport Ninoy Aquino International Airport (RPLL)
Time Latitude Longitude Altitude Speed Heading
2026-05-04 03:01 10.31239 123.97808 45 ft 0 kts 224°
2026-05-04 03:14 10.31247 123.97815 44 ft 2 kts 222°
2026-05-04 03:14 10.31259 123.97827 43 ft 2 kts 219°
2026-05-04 03:14 10.31273 123.97837 40 ft 2 kts 212°
2026-05-04 03:14 10.31287 123.97845 43 ft 2 kts 216°
2026-05-04 03:15 10.31300 123.97856 41 ft 2 kts 222°
2026-05-04 03:15 10.31312 123.97867 39 ft 2 kts 221°
2026-05-04 03:15 10.31325 123.97878 41 ft 2 kts 218°
2026-05-04 03:15 10.31338 123.97888 40 ft 2 kts 213°
2026-05-04 03:16 10.31350 123.97895 40 ft 1 kts 202°
2026-05-04 03:16 10.31354 123.97897 40 ft 0 kts 198°
2026-05-04 03:21 10.31353 123.97896 40 ft 0 kts 198°
2026-05-04 03:22 10.31368 123.97903 44 ft 2 kts 221°
2026-05-04 03:22 10.31384 123.97922 42 ft 7 kts 223°
2026-05-04 03:23 10.31386 123.97924 41 ft 0 kts 223°
2026-05-04 03:24 10.31369 123.97911 43 ft 9 kts 214°
2026-05-04 03:24 10.31307 123.97919 45 ft 11 kts 149°
2026-05-04 03:24 10.31242 123.97972 44 ft 13 kts 153°
2026-05-04 03:24 10.31160 123.97944 45 ft 15 kts 223°
2026-05-04 03:25 10.31079 123.97862 44 ft 18 kts 225°
2026-05-04 03:25 10.30980 123.97762 44 ft 22 kts 225°
2026-05-04 03:25 10.30867 123.97649 45 ft 24 kts 225°
2026-05-04 03:25 10.30738 123.97522 45 ft 27 kts 224°
2026-05-04 03:26 10.30598 123.97382 45 ft 29 kts 224°
2026-05-04 03:26 10.30446 123.97230 45 ft 32 kts 224°
2026-05-04 03:26 10.30283 123.97064 44 ft 34 kts 225°
2026-05-04 03:26 10.30109 123.96889 44 ft 35 kts 225°
2026-05-04 03:27 10.30028 123.96808 44 ft 15 kts 225°
2026-05-04 03:27 10.29953 123.96731 44 ft 13 kts 225°
2026-05-04 03:27 10.29873 123.96719 44 ft 13 kts 143°
2026-05-04 03:27 10.29800 123.96790 43 ft 17 kts 134°
2026-05-04 03:28 10.29776 123.96814 42 ft 0 kts 135°
2026-05-04 03:28 10.29774 123.96817 42 ft 0 kts 134°
2026-05-04 03:28 10.29749 123.96843 41 ft 14 kts 133°
2026-05-04 03:28 10.29732 123.96915 40 ft 10 kts 64°
2026-05-04 03:29 10.29751 123.96936 40 ft 1 kts 43°
2026-05-04 03:29 10.29898 123.97083 39 ft 70 kts 45°
2026-05-04 03:29 10.30434 123.97617 43 ft 143 kts 44°
2026-05-04 03:29 10.31245 123.98409 520 ft 168 kts 44°
2026-05-04 03:30 10.32112 123.99260 1344 ft 178 kts 43°
2026-05-04 03:30 10.33071 124.00081 1954 ft 189 kts 44°
2026-05-04 03:30 10.34053 124.01101 2199 ft 211 kts 48°
2026-05-04 03:30 10.35043 124.02288 2438 ft 234 kts 54°
2026-05-04 03:31 10.35722 124.03846 2890 ft 245 kts 67°
2026-05-04 03:31 10.36748 124.05253 3514 ft 254 kts 41°
2026-05-04 03:31 10.38350 124.06052 4157 ft 264 kts 14°
2026-05-04 03:31 10.40200 124.06027 4839 ft 272 kts 349°
2026-05-04 03:32 10.42003 124.05380 5484 ft 278 kts 335°
2026-05-04 03:32 10.43677 124.04367 6182 ft 281 kts 328°
2026-05-04 03:32 10.45257 124.03177 6829 ft 285 kts 319°
2026-05-04 03:32 10.46181 124.02224 7255 ft 287 kts 313°
2026-05-04 03:33 10.47933 124.00179 8091 ft 291 kts 311°
2026-05-04 03:33 10.49249 123.98595 8735 ft 294 kts 311°
2026-05-04 03:33 10.50565 123.96993 9398 ft 297 kts 311°
2026-05-04 03:33 10.51899 123.95369 10029 ft 300 kts 311°
2026-05-04 03:34 10.52793 123.94281 10303 ft 305 kts 310°
2026-05-04 03:34 10.54185 123.92582 10549 ft 320 kts 310°
2026-05-04 03:34 10.55638 123.90808 10795 ft 334 kts 311°
2026-05-04 03:34 10.57156 123.88953 11049 ft 346 kts 310°
2026-05-04 03:35 10.58706 123.87051 11453 ft 352 kts 310°
2026-05-04 03:35 10.60264 123.85107 11895 ft 357 kts 308°
2026-05-04 03:35 10.61730 123.83060 12372 ft 360 kts 306°
2026-05-04 03:35 10.63171 123.80998 12820 ft 364 kts 307°
2026-05-04 03:36 10.64651 123.78904 13288 ft 367 kts 307°
2026-05-04 03:36 10.66155 123.76791 13777 ft 370 kts 307°
2026-05-04 03:36 10.67677 123.74667 14153 ft 373 kts 307°
2026-05-04 03:36 10.69212 123.72531 14558 ft 375 kts 307°
2026-05-04 03:37 10.70762 123.70375 14965 ft 378 kts 307°
2026-05-04 03:37 10.72322 123.68205 15366 ft 380 kts 307°
2026-05-04 03:37 10.73887 123.66029 15761 ft 383 kts 307°
2026-05-04 03:37 10.75466 123.63834 16183 ft 385 kts 307°
2026-05-04 03:38 10.77053 123.61626 16566 ft 388 kts 307°
2026-05-04 03:38 10.78629 123.59434 16961 ft 390 kts 307°
2026-05-04 03:38 10.80235 123.57200 17354 ft 392 kts 307°
2026-05-04 03:38 10.81858 123.54942 17750 ft 395 kts 307°
2026-05-04 03:39 10.83489 123.52675 18141 ft 398 kts 307°
2026-05-04 03:39 10.85111 123.50417 18497 ft 400 kts 307°
2026-05-04 03:39 10.86761 123.48123 18837 ft 402 kts 307°
2026-05-04 03:39 10.88414 123.45817 19195 ft 403 kts 307°
2026-05-04 03:40 10.90078 123.43497 19531 ft 405 kts 307°
2026-05-04 03:40 10.91778 123.41197 19866 ft 407 kts 310°
2026-05-04 03:40 10.93653 123.39087 20201 ft 408 kts 315°
2026-05-04 03:40 10.95697 123.37028 20553 ft 409 kts 317°
2026-05-04 03:41 10.97754 123.35065 20884 ft 411 kts 318°
2026-05-04 03:41 10.99867 123.33086 21190 ft 413 kts 318°
2026-05-04 03:41 11.01988 123.31099 21505 ft 415 kts 318°
2026-05-04 03:41 11.04112 123.29095 21818 ft 417 kts 318°
2026-05-04 03:42 11.06237 123.27073 22123 ft 419 kts 317°
2026-05-04 03:42 11.08370 123.25031 22438 ft 421 kts 317°
2026-05-04 03:42 11.10506 123.22977 22748 ft 423 kts 317°
2026-05-04 03:42 11.12655 123.20909 23064 ft 425 kts 317°
2026-05-04 03:43 11.14808 123.18834 23370 ft 427 kts 317°
2026-05-04 03:43 11.16971 123.16747 23651 ft 429 kts 317°
2026-05-04 03:43 11.19142 123.14655 23904 ft 431 kts 317°
2026-05-04 03:43 11.21297 123.12579 24163 ft 432 kts 317°
2026-05-04 03:44 11.23487 123.10470 24425 ft 434 kts 317°
2026-05-04 03:44 11.25690 123.08348 24692 ft 436 kts 317°
2026-05-04 03:44 11.27898 123.06218 24982 ft 438 kts 317°
2026-05-04 03:44 11.30113 123.04082 25266 ft 439 kts 317°
2026-05-04 03:45 11.32332 123.01943 25562 ft 441 kts 317°
2026-05-04 03:45 11.34566 122.99788 25844 ft 442 kts 317°
2026-05-04 03:45 11.36808 122.97626 26114 ft 445 kts 317°
2026-05-04 03:45 11.39061 122.95453 26406 ft 446 kts 317°
2026-05-04 03:46 11.41326 122.93269 26703 ft 448 kts 317°
2026-05-04 03:46 11.43591 122.91081 27001 ft 450 kts 317°
2026-05-04 03:46 11.45840 122.88908 27293 ft 452 kts 317°
2026-05-04 03:46 11.48128 122.86698 27583 ft 454 kts 317°
2026-05-04 03:47 11.50429 122.84476 27878 ft 456 kts 317°
2026-05-04 03:47 11.52743 122.82242 28187 ft 458 kts 317°
2026-05-04 03:47 11.55067 122.79998 28483 ft 460 kts 317°
2026-05-04 03:47 11.57395 122.77747 28775 ft 462 kts 317°
2026-05-04 03:48 11.59784 122.75592 29043 ft 464 kts 325°
2026-05-04 03:48 11.62434 122.73694 29365 ft 465 kts 327°
2026-05-04 03:48 11.65126 122.71834 29664 ft 468 kts 327°
2026-05-04 03:48 11.67828 122.69978 29983 ft 470 kts 327°
2026-05-04 03:49 11.70545 122.68115 30255 ft 472 kts 327°
2026-05-04 03:49 11.73281 122.66242 30549 ft 474 kts 327°
2026-05-04 03:49 11.75998 122.64383 30848 ft 475 kts 327°
2026-05-04 03:49 11.78748 122.62502 31149 ft 477 kts 327°
2026-05-04 03:50 11.81515 122.60610 31445 ft 480 kts 327°
2026-05-04 03:50 11.84295 122.58708 31730 ft 482 kts 327°
2026-05-04 03:50 11.87093 122.56793 32015 ft 484 kts 327°
2026-05-04 03:50 11.89902 122.54871 32308 ft 486 kts 326°
2026-05-04 03:51 11.92720 122.52942 32597 ft 488 kts 326°
2026-05-04 03:51 11.95509 122.51032 32889 ft 490 kts 326°
2026-05-04 03:51 11.98344 122.49091 33188 ft 491 kts 326°
2026-05-04 03:51 12.01189 122.47142 33497 ft 492 kts 326°
2026-05-04 03:52 12.04040 122.45188 33811 ft 494 kts 326°
2026-05-04 03:52 12.06875 122.43245 33928 ft 485 kts 326°
2026-05-04 03:52 12.09632 122.41354 33938 ft 469 kts 326°
2026-05-04 03:52 12.12296 122.39528 33937 ft 455 kts 326°
2026-05-04 03:53 12.14905 122.37738 33939 ft 450 kts 326°
2026-05-04 03:53 12.20100 122.34172 33942 ft 449 kts 326°
2026-05-04 03:54 12.25266 122.30626 33942 ft 449 kts 326°
2026-05-04 03:54 12.30447 122.27068 33942 ft 449 kts 326°
2026-05-04 03:55 12.35353 122.23697 33941 ft 448 kts 326°
2026-05-04 03:55 12.40542 122.20129 33943 ft 449 kts 326°
2026-05-04 03:56 12.45694 122.16585 33944 ft 449 kts 326°
2026-05-04 03:56 12.50881 122.13017 33942 ft 449 kts 326°
2026-05-04 03:57 12.56063 122.09449 33941 ft 449 kts 326°
2026-05-04 03:57 12.61250 122.05877 33942 ft 449 kts 326°
2026-05-04 03:58 12.68944 122.00574 33943 ft 449 kts 325°
2026-05-04 03:58 12.74136 121.96992 33948 ft 449 kts 325°
2026-05-04 03:59 12.79324 121.93411 33947 ft 449 kts 325°
2026-05-04 03:59 12.84489 121.89847 33943 ft 449 kts 325°
2026-05-04 04:00 12.89678 121.86263 33946 ft 449 kts 325°
2026-05-04 04:00 12.94864 121.82679 33950 ft 448 kts 325°
2026-05-04 04:01 13.00031 121.79107 33948 ft 448 kts 325°
2026-05-04 04:01 13.05177 121.75547 33949 ft 448 kts 325°
2026-05-04 04:02 13.10342 121.71972 33951 ft 447 kts 325°
2026-05-04 04:02 13.15507 121.68396 33950 ft 447 kts 325°
2026-05-04 04:03 13.20670 121.64819 33944 ft 446 kts 325°
2026-05-04 04:03 13.23278 121.63011 33791 ft 459 kts 325°
2026-05-04 04:03 13.25914 121.61183 33633 ft 462 kts 325°
2026-05-04 04:04 13.28578 121.59337 32863 ft 464 kts 325°
2026-05-04 04:04 13.31285 121.57459 31918 ft 472 kts 325°
2026-05-04 04:04 13.34005 121.55569 31240 ft 472 kts 325°
2026-05-04 04:04 13.36736 121.53672 30664 ft 471 kts 325°
2026-05-04 04:05 13.39443 121.51792 30099 ft 469 kts 325°
2026-05-04 04:05 13.41943 121.50055 29501 ft 467 kts 326°
2026-05-04 04:05 13.44631 121.48188 28957 ft 462 kts 326°
2026-05-04 04:05 13.47263 121.46360 28795 ft 450 kts 326°
2026-05-04 04:06 13.49818 121.44585 28659 ft 437 kts 326°
2026-05-04 04:06 13.52307 121.42854 28505 ft 425 kts 326°
2026-05-04 04:06 13.54731 121.41169 28326 ft 415 kts 326°
2026-05-04 04:06 13.57060 121.39550 28121 ft 406 kts 325°
2026-05-04 04:07 13.59378 121.37902 27685 ft 403 kts 323°
2026-05-04 04:07 13.61642 121.36201 27231 ft 402 kts 323°
2026-05-04 04:07 13.63892 121.34503 26809 ft 399 kts 323°
2026-05-04 04:07 13.66134 121.32820 26417 ft 397 kts 323°
2026-05-04 04:08 13.68355 121.31159 26001 ft 390 kts 324°
2026-05-04 04:08 13.70525 121.29540 25337 ft 380 kts 324°
2026-05-04 04:08 13.72617 121.27978 24863 ft 364 kts 324°
2026-05-04 04:08 13.74646 121.26463 24457 ft 356 kts 324°
2026-05-04 04:09 13.76602 121.25003 24075 ft 350 kts 324°
2026-05-04 04:09 13.78570 121.23534 23692 ft 349 kts 324°
2026-05-04 04:09 13.80527 121.22073 23262 ft 347 kts 324°
2026-05-04 04:09 13.82483 121.20611 22861 ft 345 kts 324°
2026-05-04 04:10 13.84424 121.19165 22473 ft 343 kts 324°
2026-05-04 04:10 13.86164 121.17868 22123 ft 341 kts 324°
2026-05-04 04:10 13.88098 121.16423 21752 ft 344 kts 325°
2026-05-04 04:10 13.90035 121.14979 21378 ft 343 kts 325°
2026-05-04 04:11 13.91941 121.13559 20993 ft 341 kts 325°
2026-05-04 04:11 13.93860 121.12124 20627 ft 340 kts 325°
2026-05-04 04:11 13.95776 121.10693 20221 ft 340 kts 325°
2026-05-04 04:11 13.97686 121.09265 19842 ft 338 kts 326°
2026-05-04 04:12 13.99585 121.07846 19458 ft 337 kts 326°
2026-05-04 04:12 14.01481 121.06434 19083 ft 336 kts 326°
2026-05-04 04:12 14.03377 121.05023 18710 ft 335 kts 326°
2026-05-04 04:12 14.05261 121.03611 18309 ft 335 kts 326°
2026-05-04 04:13 14.07138 121.02204 17904 ft 333 kts 326°
2026-05-04 04:13 14.09006 121.00804 17510 ft 331 kts 326°
2026-05-04 04:13 14.10862 120.99412 17147 ft 328 kts 326°
2026-05-04 04:13 14.12689 120.98040 16972 ft 320 kts 326°
2026-05-04 04:14 14.14459 120.96706 16835 ft 310 kts 326°
2026-05-04 04:14 14.16198 120.95403 16531 ft 307 kts 326°
2026-05-04 04:14 14.17952 120.94199 16191 ft 305 kts 332°
2026-05-04 04:14 14.19789 120.93103 15884 ft 302 kts 333°
2026-05-04 04:15 14.21593 120.92043 15729 ft 294 kts 333°
2026-05-04 04:15 14.23346 120.91012 15609 ft 286 kts 333°
2026-05-04 04:15 14.25000 120.89881 15333 ft 286 kts 320°
2026-05-04 04:15 14.26083 120.88177 15055 ft 288 kts 288°
2026-05-04 04:16 14.26175 120.86166 14762 ft 286 kts 256°
2026-05-04 04:16 14.25382 120.84310 14485 ft 283 kts 238°
2026-05-04 04:16 14.24363 120.82579 14209 ft 282 kts 237°
2026-05-04 04:16 14.23342 120.80846 13917 ft 282 kts 238°
2026-05-04 04:17 14.22339 120.79100 13621 ft 281 kts 238°
2026-05-04 04:17 14.21351 120.77359 13311 ft 280 kts 238°
2026-05-04 04:17 14.20785 120.76354 13147 ft 278 kts 238°
2026-05-04 04:18 14.19817 120.74629 12868 ft 278 kts 238°
2026-05-04 04:18 14.18855 120.72934 12583 ft 278 kts 238°
2026-05-04 04:18 14.17880 120.71220 12293 ft 276 kts 238°
2026-05-04 04:18 14.16909 120.69510 12019 ft 275 kts 239°
2026-05-04 04:19 14.15946 120.67810 11757 ft 273 kts 239°
2026-05-04 04:19 14.14991 120.66125 11494 ft 271 kts 239°
2026-05-04 04:19 14.14040 120.64452 11197 ft 270 kts 239°
2026-05-04 04:19 14.13099 120.62789 10939 ft 268 kts 239°
2026-05-04 04:20 14.12159 120.61129 10677 ft 267 kts 239°
2026-05-04 04:20 14.11346 120.59413 10378 ft 266 kts 254°
2026-05-04 04:20 14.11327 120.57555 10112 ft 259 kts 289°
2026-05-04 04:20 14.12277 120.56049 9856 ft 250 kts 323°
2026-05-04 04:21 14.13721 120.55076 9584 ft 248 kts 333°
2026-05-04 04:21 14.15217 120.54227 9328 ft 248 kts 333°
2026-05-04 04:21 14.16731 120.53360 9076 ft 248 kts 333°
2026-05-04 04:21 14.18233 120.52487 8820 ft 248 kts 333°
2026-05-04 04:22 14.19762 120.51669 8557 ft 245 kts 341°
2026-05-04 04:22 14.20851 120.51417 8404 ft 242 kts
2026-05-04 04:22 14.22891 120.52082 8090 ft 233 kts 40°
2026-05-04 04:22 14.23618 120.52886 7948 ft 231 kts 56°
2026-05-04 04:23 14.24703 120.54789 7625 ft 229 kts 62°
2026-05-04 04:23 14.25213 120.55743 7461 ft 229 kts 62°
2026-05-04 04:23 14.25991 120.57178 7223 ft 228 kts 62°
2026-05-04 04:23 14.27023 120.59056 6936 ft 226 kts 62°
2026-05-04 04:24 14.27548 120.60007 6782 ft 225 kts 61°
2026-05-04 04:24 14.28572 120.61854 6477 ft 223 kts 62°
2026-05-04 04:24 14.29344 120.63242 6233 ft 222 kts 62°
2026-05-04 04:24 14.29854 120.64160 6100 ft 222 kts 62°
2026-05-04 04:25 14.30620 120.65537 5867 ft 220 kts 62°
2026-05-04 04:25 14.31378 120.66901 5675 ft 219 kts 62°
2026-05-04 04:25 14.32136 120.68267 5426 ft 219 kts 62°
2026-05-04 04:25 14.32892 120.69631 5183 ft 218 kts 62°
2026-05-04 04:26 14.33645 120.70993 4960 ft 218 kts 62°
2026-05-04 04:26 14.34399 120.72346 4726 ft 217 kts 62°
2026-05-04 04:26 14.35151 120.73697 4480 ft 217 kts 62°
2026-05-04 04:26 14.35901 120.75046 4262 ft 216 kts 62°
2026-05-04 04:27 14.36645 120.76385 4035 ft 215 kts 62°
2026-05-04 04:27 14.37392 120.77731 3804 ft 215 kts 62°
2026-05-04 04:27 14.38128 120.79055 3580 ft 215 kts 62°
2026-05-04 04:27 14.38868 120.80389 3354 ft 213 kts 62°
2026-05-04 04:28 14.39606 120.81717 3116 ft 213 kts 62°
2026-05-04 04:28 14.40337 120.83034 2872 ft 211 kts 62°
2026-05-04 04:28 14.41068 120.84345 2682 ft 208 kts 62°
2026-05-04 04:28 14.41762 120.85586 2663 ft 194 kts 61°
2026-05-04 04:29 14.42419 120.86759 2629 ft 182 kts 62°
2026-05-04 04:29 14.43036 120.87860 2573 ft 171 kts 60°
2026-05-04 04:29 14.43700 120.88856 2466 ft 167 kts 51°
2026-05-04 04:29 14.44278 120.89861 2278 ft 159 kts 67°
2026-05-04 04:30 14.44778 120.90870 2098 ft 160 kts 60°
2026-05-04 04:30 14.45351 120.91820 1862 ft 152 kts 60°
2026-05-04 04:30 14.45875 120.92764 1681 ft 151 kts 62°
2026-05-04 04:30 14.46385 120.93685 1492 ft 143 kts 62°
2026-05-04 04:31 14.46865 120.94566 1313 ft 138 kts 64°
2026-05-04 04:31 14.47311 120.95401 1127 ft 129 kts 63°
2026-05-04 04:31 14.47743 120.96199 990 ft 127 kts 63°
2026-05-04 04:31 14.48169 120.97009 790 ft 129 kts 65°
2026-05-04 04:32 14.48573 120.97828 627 ft 126 kts 64°
2026-05-04 04:32 14.49012 120.98620 515 ft 129 kts 61°
2026-05-04 04:32 14.49474 120.99419 273 ft 127 kts 63°
2026-05-04 04:32 14.49901 121.00211 116 ft 127 kts 63°
2026-05-04 04:33 14.50319 121.00970 67 ft 113 kts 60°
2026-05-04 04:33 14.50587 121.01449 65 ft 48 kts 60°
2026-05-04 04:33 14.50749 121.01742 67 ft 45 kts 60°
2026-05-04 04:33 14.50860 121.01940 70 ft 21 kts 59°
2026-05-04 04:34 14.50943 121.02014 70 ft 11 kts 30°
2026-05-04 04:34 14.50964 121.02052 68 ft 7 kts 71°
2026-05-04 04:34 14.51004 121.02175 66 ft 22 kts 64°
2026-05-04 04:34 14.51098 121.02275 69 ft 17 kts 36°
2026-05-04 04:35 14.51180 121.02284 67 ft 1 kts 308°
2026-05-04 04:35 14.51183 121.02275 70 ft 2 kts 286°
2026-05-04 04:35 14.51181 121.02246 70 ft 6 kts 256°
2026-05-04 04:35 14.51157 121.02197 68 ft 9 kts 240°
2026-05-04 04:36 14.51118 121.02126 66 ft 13 kts 240°
2026-05-04 04:36 14.51065 121.02031 64 ft 17 kts 240°
2026-05-04 04:36 14.50998 121.01913 64 ft 21 kts 240°
2026-05-04 04:36 14.50921 121.01774 67 ft 24 kts 240°
2026-05-04 04:37 14.50631 121.01252 66 ft 32 kts 240°
2026-05-04 04:37 14.50521 121.01056 66 ft 31 kts 240°
2026-05-04 04:38 14.50427 121.00886 64 ft 25 kts 240°
2026-05-04 04:38 14.50373 121.00765 66 ft 16 kts 269°
2026-05-04 04:38 14.50375 121.00653 69 ft 13 kts 251°
2026-05-04 04:38 14.50358 121.00593 70 ft 8 kts 280°
2026-05-04 04:39 14.50399 121.00574 64 ft 7 kts
2026-05-04 04:39 14.50451 121.00583 64 ft 5 kts 11°
2026-05-04 04:39 14.50463 121.00585 71 ft 0 kts 11°